Location: Gwatt
(46.7204°N, 7.6223°E)
Time: 10:08:57
(UTC+00:00)

Vanguard 2 - Visible Passes

Search period start: 24 January 2021 00:00
Search period end: 03 February 2021 00:00
Orbit: 553 x 2937 km, 32.9° (Epoch: 23 January)

Date Brightness Start Highest point End Pass type
(mag) Time Alt. Az. Time Alt. Az. Time Alt. Az.
24 Jan 9.7 18:51:54 10° SW 18:55:05 17° S 18:56:22 16° SSE visible
25 Jan 9.5 17:02:49 10° SSW 17:05:08 14° S 17:07:45 10° SE visible
25 Jan 9.9 19:09:58 10° SW 19:12:41 14° S 19:13:18 14° S visible
26 Jan 9.6 17:20:21 10° SSW 17:22:39 14° S 17:25:13 10° SE visible
26 Jan 10.1 19:28:44 10° SSW 19:30:17 11° SSW 19:30:18 11° SSW visible
27 Jan 9.7 17:38:10 10° SSW 17:40:11 13° S 17:42:25 10° SSE visible
28 Jan 9.8 17:56:30 10° SSW 17:57:43 11° S 17:59:02 10° S visible
